Other Surface Observations
Issued by NWS Charleston, SC

Home | Current Version | Previous Version | Text Only | Print | Product List | Glossary On
Versions: 1 2 3 4 5 6 7 8 9 10 11 12 13 14 15 16 17 18 19 20 21 22 23 24 25 26 27 28 29 30 31 32 33 34 35 36 37 38 39 40 41 42 43 44 45 46 47 48 49 50
000
SXUS52 KCHS 251913
OSOCHS

MARINE OBSERVATIONS
NATIONAL WEATHER SERVICE CHARLESTON SC
300 PM EDT SUN SEP 25 2016

...DOWNTOWN CHARLESTON AND HARBOR...

CITY           SKY/WX    TMP DP  RH WIND       PRES   REMARKS
WATERFRONT PRK   N/A     85  74  69 E12       30.04F HX  93

...LAKE MOULTRIE...

CITY           SKY/WX    TMP DP  RH WIND       PRES   REMARKS
PINOPOLIS        N/A     84  72  65 E6        30.00F

...LAKE AND SUPPLEMENTAL COASTAL OBSERVATIONS...

STATION/POSITION TIME  TEMP    WIND        PRES    WAVE   SWELL
                       AIR SEA DIR/SP/G            HT/PER HT/PER/DIR
                 (UTC) (F)     (DEG/KT/KT) (MB)    (FT/S) (FT/S/D)
FORT PULASKI     1842   80 81   70/ 14/ 17 1018.2F
SAPELO ISLAND    1800   85      50/ 10     1018.0
WINYAH BAY       1745   80      60/ 12     1018.0
LAKE MURRAY      1820   85     230/  3/  5 1017.6
ACE BASIN NERRS  1745   86      70/  3     1019.0


...C-MAN AND BUOY OBSERVATIONS...

STATION/POSITION TIME  TEMP    WIND        PRES    WAVE   SWELL
                       AIR SEA DIR/SP/G            HT/PER HT/PER/DIR
                 (UTC) (F)     (DEG/KT/KT) (MB)    (FT/S) (FT/S/D)
BUOY 41004       1850   82 82   60/ 14/ 17 1016.5F   4/11   3/120/11
BUOY 41008       1850   80 82   30/ 14/ 16 1016.7F   4/11   2/120/11
FOLLY BEACH CMAN 1900   81      60/ 12/ 13 1018.0F
CAPERS NS BUOY   1808   80 81   50/ 14/ 17 1017.8F
FRIPP NS BUOY    1808   85 81   60/ 12/ 16 1017.8F
5E ST. MARYS GA  1801      83                N/A     3/10   2/120/11


STATION/POSITION TIME  TEMP    WIND        PRES    WAVE   SWELL
                       AIR SEA DIR/SP/G            HT/PER HT/PER/DIR
                 (UTC) (F)     (DEG/KT/KT) (MB)    (FT/S) (FT/S/D)
FRYING PAN BUOY  1850   81 82   50/ 14/ 17 1017.5F   5/11   3/110/11
BUOY 41025       1850   74 85   30/ 16/ 21 1019.1F   5/10   3/ 90/10
CAPE LOOKOUT NC  1900   76      40/ 17/ 19 1019.0F
BUOY 41002       1850   82 84   50/ 12/ 12 1016.2F   4/ 9   3/100/ 9
BUOY 41010       NOT AVBL
ST AUGUSTINE FL  1900   81 85   30/ 13/ 14 1017.2F

$$




USA.gov is the U.S. government's official web portal to all federal, state and local government web resources and services.